TFL97T EHAM-EBBR

Flight info

Callsign TFL97T
Flight time N/A
Altitude 12000
Route WOODY
Aircraft B38M/M-SDE1FGHILORVWXY/HB1

Departure

Time N/A
Airport Amsterdam Airport Schiphol (EHAM)

Arrival

Time 2026-05-06 12:06
Airport Brussels Airport (EBBR)
Time Latitude Longitude Altitude Speed Heading
2026-05-06 11:37 51.45754 4.40613 12003 ft 352 kts 206°
2026-05-06 11:38 51.43529 4.38910 12008 ft 357 kts 207°
2026-05-06 11:38 51.41240 4.37280 12008 ft 362 kts 198°
2026-05-06 11:38 51.38734 4.36767 12015 ft 367 kts 180°
2026-05-06 11:38 51.36163 4.36913 12008 ft 372 kts 176°
2026-05-06 11:39 51.33568 4.37201 12008 ft 376 kts 176°
2026-05-06 11:39 51.30936 4.37452 12008 ft 380 kts 178°
2026-05-06 11:39 51.28284 4.37632 12010 ft 383 kts 178°
2026-05-06 11:39 51.25608 4.37818 12019 ft 387 kts 177°
2026-05-06 11:40 51.22904 4.38042 11971 ft 391 kts 177°
2026-05-06 11:40 51.20172 4.38277 11847 ft 397 kts 177°
2026-05-06 11:40 51.17392 4.38514 11647 ft 404 kts 177°
2026-05-06 11:40 51.14557 4.38754 11429 ft 411 kts 177°
2026-05-06 11:41 51.11681 4.38879 11198 ft 416 kts 183°
2026-05-06 11:41 51.08792 4.38416 10960 ft 420 kts 178°
2026-05-06 11:41 51.05950 4.39527 10742 ft 425 kts 155°
2026-05-06 11:41 51.03566 4.42283 10509 ft 432 kts 132°
2026-05-06 11:42 51.02071 4.45386 11061 ft 352 kts 124°
2026-05-06 11:42 51.00948 4.48841 10949 ft 351 kts 102°
2026-05-06 11:42 51.00917 4.52567 10881 ft 329 kts 73°
2026-05-06 11:42 51.01960 4.55634 10884 ft 313 kts 45°
2026-05-06 11:43 51.03648 4.57804 10875 ft 312 kts 33°
2026-05-06 11:43 51.05482 4.59618 10802 ft 309 kts 30°
2026-05-06 11:43 51.07414 4.61076 10734 ft 308 kts 18°
2026-05-06 11:44 51.11550 4.62750 10593 ft 306 kts 11°
2026-05-06 11:44 51.13662 4.63136 10461 ft 307 kts
2026-05-06 11:44 51.15787 4.63078 10219 ft 304 kts 354°
2026-05-06 11:44 51.17742 4.61914 9976 ft 301 kts 326°
2026-05-06 11:45 51.19295 4.59754 9785 ft 292 kts 316°
2026-05-06 11:45 51.20725 4.57521 9572 ft 283 kts 319°
2026-05-06 11:45 51.22246 4.55577 9275 ft 278 kts 327°
2026-05-06 11:45 51.23880 4.53968 8946 ft 274 kts 330°
2026-05-06 11:46 51.25508 4.52400 8609 ft 272 kts 328°
2026-05-06 11:46 51.27085 4.50758 8288 ft 269 kts 327°
2026-05-06 11:46 51.28634 4.49109 8012 ft 265 kts 327°
2026-05-06 11:46 51.30158 4.47517 8004 ft 261 kts 328°
2026-05-06 11:47 51.31676 4.45944 8002 ft 259 kts 328°
2026-05-06 11:47 51.33167 4.44391 7998 ft 259 kts 328°
2026-05-06 11:47 51.34679 4.42810 8000 ft 259 kts 328°
2026-05-06 11:47 51.36025 4.40940 8007 ft 260 kts 302°
2026-05-06 11:48 51.36493 4.38139 8020 ft 268 kts 270°
2026-05-06 11:48 51.36113 4.35218 8013 ft 271 kts 249°
2026-05-06 11:48 51.35074 4.32706 8015 ft 275 kts 227°
2026-05-06 11:48 51.34493 4.31914 8016 ft 279 kts 216°
2026-05-06 11:49 51.34171 4.31576 8014 ft 280 kts 211°
2026-05-06 11:49 51.32402 4.30261 8007 ft 281 kts 203°
2026-05-06 11:49 51.30593 4.29076 8008 ft 283 kts 204°
2026-05-06 11:49 51.28813 4.27763 8005 ft 281 kts 207°
2026-05-06 11:50 51.27059 4.26379 8020 ft 283 kts 207°
2026-05-06 11:50 51.25278 4.25000 7996 ft 283 kts 206°
2026-05-06 11:50 51.23496 4.23670 7987 ft 284 kts 206°
2026-05-06 11:50 51.21717 4.22338 7993 ft 279 kts 206°
2026-05-06 11:51 51.19966 4.21010 7992 ft 279 kts 206°
2026-05-06 11:51 51.18223 4.19688 7990 ft 276 kts 206°
2026-05-06 11:51 51.16483 4.18365 7996 ft 278 kts 208°
2026-05-06 11:51 51.14781 4.16909 7995 ft 278 kts 207°
2026-05-06 11:52 51.13033 4.15568 7997 ft 279 kts 206°
2026-05-06 11:52 51.11292 4.14211 7998 ft 278 kts 208°
2026-05-06 11:52 51.09569 4.12809 7994 ft 278 kts 207°
2026-05-06 11:52 51.07858 4.11414 7996 ft 276 kts 207°
2026-05-06 11:53 51.06160 4.10050 7998 ft 278 kts 208°
2026-05-06 11:53 51.04412 4.08650 7997 ft 278 kts 208°
2026-05-06 11:53 51.02670 4.07250 7999 ft 281 kts 207°
2026-05-06 11:53 51.00958 4.05877 8002 ft 278 kts 208°
2026-05-06 11:54 50.99208 4.04474 7996 ft 278 kts 208°
2026-05-06 11:54 50.97485 4.03094 8000 ft 277 kts 207°
2026-05-06 11:54 50.95786 4.01734 8000 ft 279 kts 208°
2026-05-06 11:54 50.93962 4.00816 8014 ft 278 kts 180°
2026-05-06 11:55 50.92076 4.01460 8014 ft 280 kts 150°
2026-05-06 11:55 50.90607 4.03408 8019 ft 276 kts 128°
2026-05-06 11:55 50.89421 4.05790 8012 ft 275 kts 126°
2026-05-06 11:55 50.88281 4.08213 7859 ft 274 kts 125°
2026-05-06 11:56 50.87120 4.10587 7629 ft 271 kts 127°
2026-05-06 11:56 50.85950 4.12920 7293 ft 271 kts 126°
2026-05-06 11:56 50.84784 4.15262 6929 ft 268 kts 126°
2026-05-06 11:56 50.83681 4.17486 6583 ft 250 kts 127°
2026-05-06 11:57 50.82607 4.19658 6261 ft 251 kts 125°
2026-05-06 11:57 50.81523 4.21844 5919 ft 254 kts 125°
2026-05-06 11:57 50.80423 4.24059 5566 ft 258 kts 125°
2026-05-06 11:57 50.79690 4.25526 5393 ft 243 kts 124°
2026-05-06 11:58 50.78715 4.27470 5089 ft 214 kts 124°
2026-05-06 11:58 50.77864 4.29177 4784 ft 184 kts 124°
2026-05-06 11:58 50.77108 4.30690 4548 ft 167 kts 123°
2026-05-06 11:58 50.76415 4.32088 4333 ft 160 kts 122°
2026-05-06 11:59 50.75730 4.33477 4119 ft 159 kts 123°
2026-05-06 11:59 50.75046 4.34844 3918 ft 158 kts 122°
2026-05-06 11:59 50.74367 4.36205 3714 ft 158 kts 123°
2026-05-06 11:59 50.73684 4.37569 3503 ft 159 kts 124°
2026-05-06 12:00 50.73005 4.38964 3270 ft 159 kts 117°
2026-05-06 12:00 50.72769 4.40547 3080 ft 147 kts 82°
2026-05-06 12:00 50.73083 4.42030 2914 ft 140 kts 51°
2026-05-06 12:00 50.73808 4.43013 2787 ft 138 kts 23°
2026-05-06 12:01 50.74717 4.43428 2664 ft 136 kts 14°
2026-05-06 12:01 50.75636 4.43804 2544 ft 137 kts 13°
2026-05-06 12:01 50.76542 4.44176 2420 ft 130 kts 13°
2026-05-06 12:01 50.77381 4.44522 2299 ft 121 kts 14°
2026-05-06 12:02 50.78197 4.44858 2188 ft 121 kts 13°
2026-05-06 12:02 50.79015 4.45195 2074 ft 121 kts 13°
2026-05-06 12:02 50.79824 4.45527 1965 ft 120 kts 14°
2026-05-06 12:02 50.80641 4.45861 1799 ft 121 kts 14°
2026-05-06 12:03 50.81461 4.46194 1638 ft 121 kts 14°
2026-05-06 12:03 50.82269 4.46517 1491 ft 119 kts 12°
2026-05-06 12:03 50.83077 4.46845 1328 ft 120 kts 14°
2026-05-06 12:03 50.83879 4.47172 1166 ft 119 kts 14°
2026-05-06 12:04 50.84689 4.47503 1005 ft 120 kts 14°
2026-05-06 12:04 50.85479 4.47825 844 ft 117 kts 13°
2026-05-06 12:04 50.86290 4.48156 715 ft 124 kts 13°
2026-05-06 12:04 50.87091 4.48482 490 ft 117 kts 13°
2026-05-06 12:05 50.87908 4.48817 335 ft 122 kts 13°
2026-05-06 12:05 50.88694 4.49140 246 ft 118 kts 13°
2026-05-06 12:05 50.89445 4.49432 168 ft 96 kts 15°
2026-05-06 12:05 50.89986 4.49666 135 ft 62 kts 15°
2026-05-06 12:06 50.90248 4.49692 126 ft 22 kts 346°
2026-05-06 12:06 50.90350 4.49648 124 ft 13 kts 344°
2026-05-06 12:06 50.90444 4.49611 123 ft 17 kts 352°
2026-05-06 12:06 50.90594 4.49651 123 ft 26 kts 15°
2026-05-06 12:07 50.90729 4.49705 122 ft 15 kts 13°
2026-05-06 12:07 50.90801 4.49673 125 ft 8 kts 284°
2026-05-06 12:07 50.90769 4.49608 121 ft 9 kts 202°
2026-05-06 12:07 50.90699 4.49576 124 ft 13 kts 195°
2026-05-06 12:08 50.90599 4.49533 122 ft 16 kts 195°
2026-05-06 12:08 50.90481 4.49487 124 ft 19 kts 194°
2026-05-06 12:08 50.90347 4.49432 124 ft 21 kts 194°
2026-05-06 12:08 50.90206 4.49375 126 ft 21 kts 194°
2026-05-06 12:09 50.90066 4.49319 132 ft 21 kts 194°
2026-05-06 12:09 50.89932 4.49260 137 ft 17 kts 202°
2026-05-06 12:09 50.89876 4.49150 140 ft 11 kts 244°
2026-05-06 12:09 50.89848 4.49057 141 ft 8 kts 245°
2026-05-06 12:10 50.89823 4.49004 141 ft 0 kts 217°
2026-05-06 12:10 50.89820 4.49003 141 ft 2 kts 208°
2026-05-06 12:10 50.89807 4.49000 142 ft 2 kts 180°
2026-05-06 12:10 50.89791 4.49006 143 ft 1 kts 159°
2026-05-06 12:11 50.89780 4.49013 144 ft 3 kts 158°
2026-05-06 12:11 50.89771 4.49019 144 ft 0 kts 155°
2026-05-06 12:11 50.89769 4.49021 144 ft 0 kts 155°
2026-05-06 12:12 50.89765 4.49024 144 ft 0 kts 155°